Location: Sternwarte Stuttgart
(48.7670°N, 9.1830°E)
Time: 05:11:26
(UTC+02:00)

ISS - All Passes

Search period start: 01 October 2016 00:00
Search period end: 11 October 2016 00:00
Orbit: 400 x 410 km, 51.6° (Epoch: 01 October)

Date Brightness Start Highest point End Pass type
(mag) Time Alt. Az. Time Alt. Az. Time Alt. Az.
01 Oct - 01:13:09 10° WNW 01:16:27 82° SSW 01:19:44 10° ESE night (unlit)
01 Oct - 02:50:13 10° W 02:52:33 18° SW 02:54:54 10° S night (unlit)
01 Oct - 19:32:35 10° S 19:34:50 18° SE 19:37:06 10° E visible
01 Oct - 21:07:40 10° WSW 21:10:56 81° SSE 21:14:12 10° ENE visible
01 Oct - 22:44:23 10° W 22:47:34 49° N 22:50:47 10° ENE visible
02 Oct - 00:21:02 10° WNW 00:24:19 72° NNE 00:27:36 10° ESE night (unlit)
02 Oct - 01:57:44 10° W 02:00:38 29° SW 02:03:31 10° SSE night (unlit)
02 Oct - 18:42:18 10° SE 18:42:58 10° SE 18:43:38 10° ESE daylight
02 Oct - 20:15:40 10° SW 20:18:51 53° SSE 20:22:03 10° ENE visible
02 Oct - 21:52:09 10° W 21:55:23 54° N 21:58:36 10° ENE visible
02 Oct - 23:28:54 10° WNW 23:32:08 57° N 23:35:23 10° E night (unlit)
03 Oct - 01:05:27 10° WNW 01:08:37 46° SSW 01:11:47 10° SE night (unlit)
03 Oct - 19:23:50 10° SSW 19:26:48 33° SE 19:29:48 10° E visible
03 Oct - 20:59:55 10° W 21:03:10 66° NNW 21:06:26 10° ENE visible
03 Oct - 22:36:43 10° WNW 22:39:56 50° N 22:43:08 10° E visible
04 Oct - 00:13:16 10° WNW 00:16:32 72° SSW 00:19:49 10° ESE night (unlit)
04 Oct - 01:50:35 10° W 01:52:34 15° SW 01:54:34 10° S night (unlit)
04 Oct - 18:32:18 10° SSW 18:34:50 21° SE 18:37:22 10° E daylight
04 Oct - 20:07:44 10° WSW 20:11:00 88° NNW 20:14:16 10° ENE visible
04 Oct - 21:44:30 10° WNW 21:47:41 48° N 21:50:53 10° ENE visible
04 Oct - 23:21:06 10° WNW 23:24:23 81° NNE 23:27:40 10° ESE night (unlit)
05 Oct - 00:57:54 10° W 01:00:37 24° SW 01:03:21 10° SSE night (unlit)
05 Oct - 17:41:22 10° SSE 17:42:54 13° SE 17:44:26 10° ESE daylight
05 Oct - 19:15:38 10° SW 19:18:51 63° SSE 19:22:05 10° ENE daylight
05 Oct - 20:52:14 10° W 20:55:26 51° N 20:58:38 10° ENE visible
05 Oct - 22:28:56 10° WNW 22:32:11 62° NNE 22:35:26 10° E visible
06 Oct - 00:05:32 10° WNW 00:08:36 39° SSW 00:11:41 10° SE night (unlit)
06 Oct - 18:23:41 10° SW 18:26:46 39° SSE 18:29:50 10° ENE daylight
06 Oct - 19:59:57 10° W 20:03:11 61° NNW 20:06:26 10° ENE visible
06 Oct - 21:36:44 10° WNW 21:39:57 52° N 21:43:09 10° E visible
06 Oct - 23:13:16 10° WNW 23:16:30 61° SSW 23:19:45 10° SE night (unlit)
07 Oct - 00:50:59 10° WSW 00:52:28 13° SW 00:53:57 10° SSW night (unlit)
07 Oct - 17:31:59 10° SSW 17:34:43 25° SE 17:37:27 10° E daylight
07 Oct - 19:07:42 10° WSW 19:10:57 79° NNW 19:14:13 10° ENE daylight
07 Oct - 20:44:29 10° WNW 20:47:40 48° N 20:50:52 10° ENE visible
07 Oct - 22:21:03 10° WNW 22:24:21 90° ESE 22:27:37 10° ESE visible
07 Oct - 23:58:00 10° W 00:00:30 20° SW 00:03:01 10° S night (unlit)
08 Oct - 16:40:43 10° S 16:42:43 15° SE 16:44:44 10° E daylight
08 Oct - 18:15:31 10° WSW 18:18:45 73° SSE 18:22:01 10° ENE daylight
08 Oct - 19:52:11 10° W 19:55:22 49° N 19:58:34 10° ENE visible
08 Oct - 21:28:51 10° WNW 21:32:07 67° NNE 21:35:22 10° E visible
08 Oct - 23:05:30 10° W 23:08:28 32° SW 23:11:26 10° SSE night (unlit)
09 Oct - 17:23:28 10° SW 17:26:36 47° SSE 17:29:45 10° ENE daylight
09 Oct - 18:59:52 10° W 19:03:05 56° N 19:06:19 10° ENE daylight
09 Oct - 20:36:37 10° WNW 20:39:51 54° N 20:43:04 10° E visible
09 Oct - 22:13:09 10° WNW 22:16:21 52° SSW 22:19:33 10° SE visible
09 Oct - 23:51:44 10° SW 23:52:13 10° SW 23:52:42 10° SW night (unlit)
10 Oct - 16:31:37 10° SSW 16:34:30 29° SE 16:37:23 10° E daylight
10 Oct - 18:07:33 10° WSW 18:10:48 71° NNW 18:14:04 10° ENE daylight
10 Oct - 19:44:21 10° WNW 19:47:32 49° N 19:50:44 10° E visible
10 Oct - 21:20:54 10° WNW 21:24:11 80° SSW 21:27:26 10° ESE visible
10 Oct - 22:58:01 10° W 23:00:15 17° SW 23:02:29 10° S night (unlit)
